Home > Weather > Zaragoza > Past weeks

Flag for Spain Past Weather in Zaragoza, Spain — Yesterday and Last 2 Weeks

Now
61 °F

Passing clouds.


Feels Like: 61 °F
Forecast: 57 / 74 °F
Wind: 10 mph from Southwest

Location: Zaragoza / Aeropuerto

Current Time: May 29, 2016 at 4:03:08 AM

Latest Report: May 29, 2016 at 3:30 AM


Visibility: N/A

Pressure: 29.92 "Hg

Humidity: 63%

Dew Point: 48 °F

Location of ZaragozaLocation

Past Weather in Zaragoza — Graph

°F

Zaragoza Temperature Yesterday

Maximum temperature yesterday: 84 °F (at 5:30 PM)
Minimum temperature yesterday: 59 °F (at 7:00 AM)
Average temperature yesterday: 71 °F

High & Low Weather Summary for the Past Weeks

 TemperatureHumidityPressure
High88 °F (May 27, 6:30 PM)88% (May 20, 6:30 AM)30.27 "Hg (May 20, 6:30 AM)
Low46 °F (May 23, 6:30 AM)20% (May 28, 5:30 PM)29.74 "Hg (May 24, 7:00 PM)
Average66 °F57%30.01 "Hg
* Reported May 14 3:00 AM — May 29 3:00 AM, Zaragoza, Weather by CustomWeather, © 2016

Note: Actual official high and low records may vary slightly from our data, if they occured in-between our weather recording intervals... More about our weather records

Advertising

Zaragoza Weather History for the Previous 24 Hours

Scroll right to see more
 ConditionsComfort  
Time TempWeatherWind HumidityBarometerVisibility
3:00 AM
Sun, May 29
61 °FPassing clouds.9 mph63%29.92 "HgN/A
2:30 AM61 °FPassing clouds.7 mph59%29.92 "HgN/A
2:00 AM63 °FPassing clouds.10 mph56%29.92 "HgN/A
1:30 AM63 °FPassing clouds.8 mph56%29.92 "HgN/A
1:00 AM63 °FPassing clouds.6 mph64%29.92 "HgN/A
12:30 AM63 °FPassing clouds.5 mph64%29.92 "HgN/A
12:00 AM64 °FPassing clouds.3 mph60%29.92 "HgN/A
11:30 PM
Sat, May 28
64 °FPassing clouds.6 mph60%29.92 "HgN/A
11:00 PM64 °FPassing clouds.6 mph56%29.92 "HgN/A
10:30 PM64 °FPassing clouds.7 mph56%29.89 "HgN/A
10:00 PM66 °FPassing clouds.7 mph52%29.89 "HgN/A
9:30 PM66 °FScattered clouds.16 mph49%29.86 "HgN/A
9:00 PM68 °FPartly sunny.20 mph46%29.86 "HgN/A
8:30 PM70 °FPartly sunny.23 mph43%29.86 "HgN/A
8:00 PM70 °FBroken clouds.24 mph43%29.83 "HgN/A
7:30 PM70 °FScattered clouds.29 mph40%29.83 "HgN/A
7:00 PM72 °FScattered clouds.33 mph38%29.83 "HgN/A
6:30 PM75 °FScattered clouds.36 mph34%29.80 "Hg4 mi
6:00 PM82 °FScattered clouds.18 mph21%29.80 "HgN/A
5:30 PM84 °FScattered clouds.18 mph20%29.77 "HgN/A
5:00 PM82 °FScattered clouds.17 mph23%29.77 "HgN/A
4:30 PM82 °FScattered clouds.9 mph23%29.80 "HgN/A
4:00 PM81 °FScattered clouds.5 mph26%29.80 "HgN/A
3:30 PM81 °FScattered clouds.7 mph26%29.80 "HgN/A
3:00 PM82 °FScattered clouds.8 mph25%29.83 "HgN/A
2:30 PM82 °FScattered clouds.9 mph23%29.83 "HgN/A
2:00 PM81 °FScattered clouds.5 mph24%29.86 "HgN/A
1:30 PM81 °FScattered clouds.8 mph24%29.86 "HgN/A
1:00 PM81 °FScattered clouds.12 mph26%29.89 "HgN/A
12:30 PM81 °FScattered clouds.5 mph28%29.89 "HgN/A
12:00 PM79 °FScattered clouds.7 mph32%29.89 "HgN/A
11:30 AM77 °FPassing clouds.3 mph34%29.92 "HgN/A
11:00 AM75 °FPassing clouds.2 mph36%29.92 "HgN/A
10:30 AM75 °FPassing clouds.2 mph39%29.92 "HgN/A
10:00 AM73 °FPassing clouds.3 mph44%29.92 "HgN/A
9:30 AM72 °FPassing clouds.2 mph41%29.92 "HgN/A
9:00 AM70 °FPassing clouds.8 mph46%29.92 "HgN/A
8:30 AM68 °FPassing clouds.6 mph49%29.92 "HgN/A
8:00 AM64 °FSunny.2 mph64%29.92 "Hg10 mi
7:30 AM61 °FClear.2 mph77%29.92 "Hg10 mi
7:00 AM59 °FPassing clouds.2 mph77%29.92 "HgN/A
6:30 AM61 °FPassing clouds.1 mph77%29.92 "HgN/A
6:00 AM61 °FPassing clouds.1 mph77%29.92 "HgN/A
5:30 AM63 °FPassing clouds.1 mph64%29.92 "HgN/A
5:00 AM63 °FPassing clouds.1 mph68%29.92 "HgN/A
4:30 AM64 °FPassing clouds.7 mph68%29.92 "HgN/A
4:00 AM64 °FPassing clouds.7 mph68%29.92 "HgN/A
Weather by CustomWeather, © 2016

See weather overviewHow to use our weather pages